EW0259 Weather Reports


time (UTC)temp
C
wind
direction
speed
KPH
gust
KPH
rain 1hr
cm
rain 24hr
cm
rain mn
cm
humidity
%
barometer
mb
20260503031240 20 319 1.6 8.0 0.00 0.00 0.00 55 1014.2
20260503030728 20 323 0.0 6.4 0.00 0.00 0.00 54 1014.1
20260503030240 21 325 1.6 6.4 0.00 0.00 0.00 54 1014.1
20260503025727 21 296 1.6 8.0 0.00 0.00 0.00 54 1014.1
20260503025235 21 334 3.2 8.0 0.00 0.00 0.00 54 1014.2
20260503024723 21 323 1.6 11.3 0.00 0.00 0.00 54 1014.2
20260503024311 21 333 4.8 11.3 0.00 0.00 0.00 53 1014.0
20260503023727 21 85 3.2 8.0 0.00 0.00 0.00 54 1013.9
20260503023235 21 324 3.2 14.5 0.00 0.00 0.00 54 1014.0
20260503022722 21 325 3.2 14.5 0.00 0.00 0.00 54 1014.2
20260503022310 22 282 3.2 8.0 0.00 0.00 0.00 53 1014.1
20260503022238 22 282 3.2 8.0 0.00 0.00 0.00 53 1014.1
20260503021726 22 309 3.2 9.7 0.00 0.00 0.00 52 1013.9
20260503021234 22 350 3.2 8.0 0.00 0.00 0.00 52 1013.9
20260503020726 22 340 1.6 12.9 0.00 0.00 0.00 52 1014.0
20260503020234 22 308 3.2 11.3 0.00 0.00 0.00 51 1014.0
20260503015721 23 324 1.6 6.4 0.00 0.00 0.00 50 1014.0
20260503015308 23 360 1.6 4.8 0.00 0.00 0.00 49 1014.0
20260503014805 23 42 0.0 6.4 0.00 0.00 0.00 49 1014.1
20260503014733 23 42 0.0 6.4 0.00 0.00 0.00 49 1014.1
20260503014221 23 324 3.2 8.0 0.00 0.00 0.00 49 1014.1
20260503013729 23 338 1.6 11.3 0.00 0.00 0.00 49 1014.1
20260503013236 23 332 4.8 12.9 0.00 0.00 0.00 49 1014.1
20260503012723 23 355 3.2 14.5 0.00 0.00 0.00 48 1014.0
20260503012231 23 309 6.4 12.9 0.00 0.00 0.00 48 1014.2
20260503011739 23 309 4.8 11.3 0.00 0.00 0.00 48 1014.2
20260503011306 23 307 1.6 12.9 0.00 0.00 0.00 48 1014.0
20260503010723 23 14 4.8 14.5 0.00 0.00 0.00 48 1014.0
20260503010310 23 321 3.2 14.5 0.00 0.00 0.00 48 1014.0
20260503005806 23 309 4.8 12.9 0.00 0.00 0.00 47 1014.1
20260503005227 23 11 1.6 14.5 0.00 0.00 0.00 48 1014.1
20260503004735 23 312 6.4 14.5 0.00 0.00 0.00 47 1014.1
20260503004223 24 309 3.2 8.0 0.00 0.00 0.00 47 1014.2
20260503003731 23 327 3.2 16.1 0.00 0.00 0.00 48 1014.2
20260503003259 23 10 6.4 16.1 0.00 0.00 0.00 48 1014.3
20260503003227 23 10 6.4 16.1 0.00 0.00 0.00 48 1014.3
20260503002734 23 360 3.2 14.5 0.00 0.00 0.00 48 1014.3
20260503002222 23 302 3.2 16.1 0.00 0.00 0.00 48 1014.4
20260503001730 23 252 6.4 17.7 0.00 0.00 0.00 48 1014.2
20260503001257 23 303 4.8 17.7 0.00 0.00 0.00 47 1014.2
20260503000734 23 323 8.0 17.7 0.00 0.00 0.00 48 1014.3
20260503000222 24 267 6.4 14.5 0.00 0.00 0.00 46 1014.3
20260502235729 23 254 3.2 9.7 0.00 0.00 0.00 48 1014.3
20260502235221 23 35 3.2 11.3 0.00 0.00 0.00 48 1014.4
20260502234729 23 300 3.2 16.1 0.00 0.00 0.00 48 1014.4
20260502234237 23 9 4.8 16.1 0.00 0.00 0.00 48 1014.6
20260502233725 23 334 3.2 16.1 0.00 0.00 0.00 48 1014.8
20260502233312 23 263 3.2 19.3 0.00 0.00 0.00 49 1014.8
20260502232808 23 288 8.0 19.3 0.00 0.00 0.00 47 1014.8
20260502232224 23 315 4.8 12.9 0.00 0.00 0.00 48 1015.0
20260502231812 23 56 4.8 12.9 0.00 0.00 0.00 49 1015.1
20260502231228 23 266 3.2 12.9 0.00 0.00 0.00 50 1015.2
20260502230736 23 309 4.8 14.5 0.00 0.00 0.00 50 1015.2
20260502230304 23 304 4.8 14.5 0.00 0.00 0.00 50 1015.1
20260502230232 23 304 4.8 14.5 0.00 0.00 0.00 50 1015.1
20260502225739 23 274 3.2 12.9 0.00 0.00 0.00 51 1015.3
20260502225226 23 278 3.2 16.1 0.00 0.00 0.00 52 1015.4
20260502224734 23 331 8.0 16.1 0.00 0.00 0.00 51 1015.4
20260502224226 23 97 4.8 16.1 0.00 0.00 0.00 53 1015.5
20260502223734 23 328 4.8 17.7 0.00 0.00 0.00 54 1015.4
20260502223241 23 321 4.8 8.0 0.00 0.00 0.00 55 1015.5
20260502222728 22 297 3.2 14.5 0.00 0.00 0.00 56 1015.6
20260502222234 22 321 4.8 14.5 0.00 0.00 0.00 56 1015.8
20260502221721 22 324 4.8 19.3 0.00 0.00 0.00 56 1015.9
20260502221229 22 10 9.7 19.3 0.00 0.00 0.00 56 1015.8
20260502220737 22 360 4.8 19.3 0.00 0.00 0.00 55 1015.8
20260502220225 22 313 6.4 17.7 0.00 0.00 0.00 55 1015.9
20260502215736 22 317 4.8 14.5 0.00 0.00 0.00 56 1016.1
20260502215224 22 298 6.4 16.1 0.00 0.00 0.00 56 1016.1
20260502214731 22 311 6.4 16.1 0.00 0.00 0.00 55 1016.0
20260502214239 22 297 4.8 16.1 0.00 0.00 0.00 55 1015.9
20260502213726 22 286 6.4 16.1 0.00 0.00 0.00 55 1016.0
20260502213234 22 348 6.4 16.1 0.00 0.00 0.00 55 1016.2
20260502212801 22 15 6.4 16.1 0.00 0.00 0.00 54 1016.3
20260502212237 22 321 6.4 11.3 0.00 0.00 0.00 54 1016.3
20260502211725 22 305 4.8 8.0 0.00 0.00 0.00 55 1016.4
20260502211233 22 277 1.6 8.0 0.00 0.00 0.00 56 1016.5
20260502210801 22 132 4.8 12.9 0.00 0.00 0.00 56 1016.5
20260502210222 21 9 4.8 12.9 0.00 0.00 0.00 57 1016.4
20260502205729 21 340 3.2 12.9 0.00 0.00 0.00 58 1016.5
20260502205237 21 288 3.2 16.1 0.00 0.00 0.00 58 1016.5
20260502204805 21 285 4.8 14.5 0.00 0.00 0.00 58 1016.6
20260502204733 21 285 4.8 14.5 0.00 0.00 0.00 58 1016.6
20260502204221 21 9 4.8 16.1 0.00 0.00 0.00 57 1016.6
20260502203728 21 300 3.2 16.1 0.00 0.00 0.00 58 1016.7
20260502203256 21 324 4.8 12.9 0.00 0.00 0.00 58 1016.7
20260502203224 21 324 4.8 12.9 0.00 0.00 0.00 58 1016.7
20260502202811 21 264 3.2 12.9 0.00 0.00 0.00 60 1016.7
20260502202739 21 264 3.2 12.9 0.00 0.00 0.00 60 1016.7
20260502202227 20 327 6.4 12.9 0.00 0.00 0.00 59 1016.7
20260502201735 20 342 6.4 17.7 0.00 0.00 0.00 60 1016.9
20260502201223 20 232 4.8 12.9 0.00 0.00 0.00 60 1016.9
20260502200731 20 360 3.2 17.7 0.00 0.00 0.00 61 1016.9
20260502200239 20 312 6.4 12.9 0.00 0.00 0.00 59 1016.9
20260502195730 20 5 4.8 16.1 0.00 0.00 0.00 61 1017.1
20260502195238 20 294 3.2 16.1 0.00 0.00 0.00 61 1017.0
20260502194726 20 23 3.2 9.7 0.00 0.00 0.00 61 1017.0
20260502194234 20 324 3.2 12.9 0.00 0.00 0.00 62 1017.1
20260502193802 20 273 6.4 12.9 0.00 0.00 0.00 61 1017.1
20260502193238 20 322 3.2 6.4 0.00 0.00 0.00 61 1017.1
20260502192725 19 5 1.6 12.9 0.00 0.00 0.00 63 1017.3
20260502192233 19 218 4.8 16.1 0.00 0.00 0.00 63 1017.5
20260502191721 19 323 6.4 16.1 0.00 0.00 0.00 62 1017.5
20260502191229 19 17 4.8 9.7 0.00 0.00 0.00 62 1017.4
20260502190721 19 28 3.2 8.0 0.00 0.00 0.00 62 1017.4
20260502190305 19 355 1.6 8.0 0.00 0.00 0.00 64 1017.5
20260502185725 18 238 1.6 12.9 0.00 0.00 0.00 64 1017.6
20260502185233 18 348 6.4 16.1 0.00 0.00 0.00 64 1017.5
20260502184801 18 250 6.4 16.1 0.00 0.00 0.00 65 1017.6
20260502184729 18 250 6.4 16.1 0.00 0.00 0.00 65 1017.6
20260502184237 18 355 4.8 11.3 0.00 0.00 0.00 63 1017.5
20260502183725 18 349 1.6 8.0 0.00 0.00 0.00 66 1017.5
20260502183313 18 5 4.8 8.0 0.00 0.00 0.00 67 1017.5
20260502182727 17 350 4.8 8.0 0.00 0.00 0.00 66 1017.5
20260502182254 17 290 3.2 9.7 0.00 0.00 0.00 66 1017.5
20260502181731 17 22 1.6 12.9 0.00 0.00 0.00 67 1017.6
20260502181259 17 285 3.2 12.9 0.00 0.00 0.00 67 1017.7
20260502180735 17 355 3.2 11.3 0.00 0.00 0.00 67 1017.7
20260502180223 17 355 4.8 11.3 0.00 0.00 0.00 66 1017.6
20260502170239 15 344 4.8 11.3 0.00 0.00 0.00 76 1017.7
20260502164230 14 311 3.2 11.3 0.00 0.00 0.00 78 1017.7
20260502163758 14 347 4.8 11.3 0.00 0.00 0.00 79 1017.7
20260502163235 13 355 1.6 4.8 0.00 0.00 0.00 80 1017.9
20260502162726 13 307 3.2 12.9 0.00 0.00 0.00 81 1018.1
20260502162254 13 306 4.8 12.9 0.00 0.00 0.00 83 1018.0
20260502161730 13 10 1.6 3.2 0.00 0.00 0.00 83 1018.0
20260502161238 12 320 1.6 3.2 0.00 0.00 0.00 84 1017.9
20260502160726 12 280 0.0 3.2 0.00 0.00 0.00 86 1018.0
20260502160234 12 254 1.6 3.2 0.00 0.00 0.00 87 1018.0
20260502152227 11 315 1.6 3.2 0.00 0.00 0.00 89 1017.7
20260502151735 11 312 0.0 1.6 0.00 0.00 0.00 89 1017.9
20260502151223 11 338 0.0 1.6 0.00 0.00 0.00 90 1017.7
20260502150731 11 298 0.0 0.0 0.00 0.00 0.00 90 1017.8
20260502150238 11 303 0.0 0.0 0.00 0.00 0.00 90 1017.9
20260502130731 10 256 0.0 0.0 0.00 0.00 0.00 91 1017.6
20260502130259 10 275 0.0 0.0 0.00 0.00 0.00 91 1017.6
20260502123734 10 340 0.0 0.0 0.00 0.00 0.00 91 1017.9
20260502123222 10 345 0.0 0.0 0.00 0.00 0.00 91 1018.0
20260502122808 10 351 0.0 0.0 0.00 0.00 0.00 91 1018.0
20260502122225 10 351 0.0 0.0 0.00 0.00 0.00 91 1018.0
20260502121733 10 355 0.0 3.2 0.00 0.00 0.00 91 1017.9
20260502121224 10 289 0.0 3.2 0.00 0.00 0.00 90 1018.0
20260502120732 10 289 0.0 1.6 0.00 0.00 0.00 90 1017.7
20260502120300 10 289 0.0 3.2 0.00 0.00 0.00 90 1017.7
20260502115735 10 273 1.6 3.2 0.00 0.00 0.00 90 1017.8
20260502115223 10 152 0.0 1.6 0.00 0.00 0.00 89 1017.9
20260502114731 10 152 0.0 3.2 0.00 0.00 0.00 89 1018.0
20260502114258 10 152 0.0 3.2 0.00 0.00 0.00 89 1018.0
20260502113755 11 150 0.0 3.2 0.00 0.00 0.00 89 1018.1
20260502113231 11 150 0.0 3.2 0.00 0.00 0.00 88 1018.1
20260502112738 11 23 0.0 0.0 0.00 0.00 0.00 87 1018.0
20260502112306 11 23 0.0 0.0 0.00 0.00 0.00 87 1018.0
20260502112234 11 23 0.0 0.0 0.00 0.00 0.00 87 1018.0
20260502111802 11 22 0.0 0.0 0.00 0.00 0.00 86 1018.1
20260502111238 11 22 0.0 3.2 0.00 0.00 0.00 86 1018.1
20260502110726 11 15 1.6 3.2 0.00 0.00 0.00 86 1018.2
20260502110233 11 34 0.0 3.2 0.00 0.00 0.00 87 1018.5
20260502105800 11 28 0.0 3.2 0.00 0.00 0.00 87 1018.7
20260502105728 11 28 0.0 3.2 0.00 0.00 0.00 87 1018.7
20260502105236 11 36 0.0 0.0 0.00 0.00 0.00 87 1018.7
20260502104804 10 227 0.0 0.0 0.00 0.00 0.00 87 1018.7
20260502104732 10 227 0.0 0.0 0.00 0.00 0.00 87 1018.7
20260502104224 10 276 0.0 0.0 0.00 0.00 0.00 87 1018.6
20260502103732 10 285 0.0 0.0 0.00 0.00 0.00 86 1018.4
20260502103240 10 288 0.0 0.0 0.00 0.00 0.00 86 1018.0
20260502102807 11 290 0.0 0.0 0.00 0.00 0.00 85 1017.9
20260502102735 11 290 0.0 0.0 0.00 0.00 0.00 85 1017.9
20260502102223 11 290 0.0 0.0 0.00 0.00 0.00 85 1017.9
20260502101731 11 290 0.0 0.0 0.00 0.00 0.00 85 1017.8
20260502101239 11 290 0.0 0.0 0.00 0.00 0.00 84 1017.6
20260502100807 11 288 0.0 0.0 0.00 0.00 0.00 84 1017.6
20260502100735 11 288 0.0 0.0 0.00 0.00 0.00 84 1017.6
20260502100223 11 57 0.0 0.0 0.00 0.00 0.00 84 1017.7
20260502091238 12 34 0.0 0.0 0.00 0.00 0.00 80 1017.6
20260502090726 12 34 0.0 0.0 0.00 0.00 0.00 80 1017.7
20260502090234 12 288 0.0 0.0 0.00 0.00 0.00 79 1017.6
20260502071224 14 208 0.0 0.0 0.00 0.00 0.00 65 1017.7
20260502070752 14 208 0.0 0.0 0.00 0.00 0.00 63 1017.7
20260502070228 15 208 0.0 0.0 0.00 0.00 0.00 64 1017.6
20260502065733 15 208 0.0 0.0 0.00 0.00 0.00 63 1017.7
20260502065221 15 293 0.0 0.0 0.00 0.00 0.00 63 1017.5
20260502064729 15 300 0.0 1.6 0.00 0.00 0.00 60 1017.4
20260502064237 15 313 0.0 4.8 0.00 0.00 0.00 60 1017.4
20260502063805 16 282 0.0 3.2 0.00 0.00 0.00 60 1017.5
20260502063241 16 313 0.0 3.2 0.00 0.00 0.00 60 1017.6
20260502062808 16 313 0.0 4.8 0.00 0.00 0.00 59 1017.4
20260502062306 16 311 3.2 4.8 0.00 0.00 0.00 59 1017.4
20260502061801 16 281 1.6 3.2 0.00 0.00 0.00 58 1017.2
20260502061729 16 281 1.6 3.2 0.00 0.00 0.00 58 1017.2
20260502061237 16 13 1.6 3.2 0.00 0.00 0.00 59 1017.1
20260502060729 16 306 0.0 1.6 0.00 0.00 0.00 59 1017.2
20260502060237 16 302 0.0 3.2 0.00 0.00 0.00 59 1017.1
20260502055724 16 24 1.6 4.8 0.00 0.00 0.00 58 1017.0
20260502055312 16 327 1.6 4.8 0.00 0.00 0.00 60 1017.1
20260502054808 16 346 0.0 1.6 0.00 0.00 0.00 60 1017.0
20260502054224 16 325 0.0 0.0 0.00 0.00 0.00 61 1016.9
20260502053732 16 332 0.0 0.0 0.00 0.00 0.00 61 1017.0
20260502053240 16 334 0.0 3.2 0.00 0.00 0.00 61 1016.9
20260502052727 16 334 0.0 3.2 0.00 0.00 0.00 61 1016.9
20260502052235 16 327 0.0 1.6 0.00 0.00 0.00 61 1017.0
20260502051723 16 337 1.6 3.2 0.00 0.00 0.00 61 1017.0
20260502051231 16 341 0.0 3.2 0.00 0.00 0.00 62 1016.9
20260502050723 16 342 0.0 3.2 0.00 0.00 0.00 62 1016.9
20260502050231 16 360 0.0 3.2 0.00 0.00 0.00 62 1016.9
20260502045738 16 304 0.0 3.2 0.00 0.00 0.00 63 1016.9
20260502045306 16 292 0.0 3.2 0.00 0.00 0.00 63 1016.8
20260502045234 16 292 0.0 3.2 0.00 0.00 0.00 63 1016.8
20260502044721 16 349 0.0 3.2 0.00 0.00 0.00 63 1016.8
20260502044229 16 345 1.6 3.2 0.00 0.00 0.00 63 1016.7
20260502043737 16 331 1.6 8.0 0.00 0.00 0.00 64 1016.5
20260502043225 16 307 1.6 8.0 0.00 0.00 0.00 64 1016.6
20260502042812 16 321 0.0 3.2 0.00 0.00 0.00 64 1016.7
20260502042740 16 321 0.0 3.2 0.00 0.00 0.00 64 1016.7
20260502042308 16 311 1.6 6.4 0.00 0.00 0.00 64 1016.6
20260502041725 16 282 0.0 6.4 0.00 0.00 0.00 64 1016.6
20260502041233 17 296 1.6 4.8 0.00 0.00 0.00 64 1016.5
20260502040801 17 310 1.6 4.8 0.00 0.00 0.00 63 1016.4
20260502040729 17 310 1.6 4.8 0.00 0.00 0.00 63 1016.4
20260502040257 17 339 1.6 3.2 0.00 0.00 0.00 62 1016.4
20260502040225 17 339 1.6 3.2 0.00 0.00 0.00 62 1016.4
20260502035732 17 292 0.0 3.2 0.00 0.00 0.00 61 1016.4
20260502035223 17 284 0.0 4.8 0.00 0.00 0.00 61 1016.4
20260502034731 17 268 1.6 3.2 0.00 0.00 0.00 60 1016.4
20260502034239 17 315 1.6 4.8 0.00 0.00 0.00 59 1016.3
20260502033727 17 326 1.6 4.8 0.00 0.00 0.00 58 1016.2
20260502033255 17 325 1.6 3.2 0.00 0.00 0.00 58 1015.9
20260502032730 18 323 1.6 3.2 0.00 0.00 0.00 56 1016.0
20260502032238 18 255 0.0 3.2 0.00 0.00 0.00 55 1016.0
20260502031805 18 302 1.6 4.8 0.00 0.00 0.00 54 1015.9